Regional Weather Roundup
Issued by NWS Midland/Odessa, TX

Skip options and go directly to product.
Home | Oldest Version | Previous Version | Current Version | All | Graphics & Text | Save Text | Print | Product List | Glossary On

Skip product version selection by date and time.   
020
ASUS44 KMAF 281710
RWRMAF
MIDLAND AREA WEATHER ROUNDUP
NATIONAL WEATHER SERVICE MIDLAND TX
1200 PM CDT SAT MAR 28 2015

...IN SOUTHWEST TEXAS AND SOUTHEAST NEW MEXICO...

CITY           SKY/WX    TMP DP  RH WIND       PRES   REMARKS
ALPINE         SUNNY     75  26  16 SW20      30.25F
ANDREWS        FAIR      78  27  15 W10       30.08F
ARTESIA        SUNNY     70  30  23 VRB3      30.13S
BIG SPRING     SUNNY     79  39  23 SW12G20   30.09F
CARLSBAD       SUNNY     74  29  19 N5        30.10S
DRYDEN           N/A     78  36  21 SW12      30.11S
FORT STOCKTON  SUNNY     82  32  16 SW10      30.10F
GUAD PASS      SUNNY     68  28  22 SW21      30.25S
HOBBS          SUNNY     79  27  14 W14G20    30.10F
MARFA          SUNNY     72  30  21 S10       30.26S
MIDLAND AIRPK  SUNNY     76  36  22 SW12      30.08F
MIDLAND INTL   SUNNY     76  35  22 SW14      30.08S
ODESSA         SUNNY     76  36  23 W12       30.09S
PECOS          SUNNY     74  39  28 CALM      30.08F
PRESIDIO       FAIR      73  36  26 SE5       30.18S
SEMINOLE       SUNNY     75  31  19 W9        30.10S
SNYDER         SUNNY     73  38  28 SW15      30.05F
WINK           SUNNY     76  33  21 W10       30.07F
$$
...OTHER STATIONS IN TEXAS...

CITY           SKY/WX    TMP DP  RH WIND       PRES   REMARKS
ABILENE        SUNNY     74  42  31 SW18G24   30.04S
AMARILLO       SUNNY     75  33  21 NW7       30.08S
AUSTIN         SUNNY     74  43  32 SW21G30   30.12F
BROWNSVILLE    SUNNY     77  53  43 S18       30.20F
CORPUS CHRISTI SUNNY     72  55  55 S16       30.18F
DALLAS FTW     MOSUNNY   68  44  42 S8        30.06F
DEL RIO        SUNNY     75  42  30 SE13      30.10F
EL PASO        SUNNY     71  21  15 N5        30.20R
HOUSTON INT    SUNNY     75  42  30 SW10      30.17F
LUBBOCK        MOSUNNY   72  34  24 N8        30.05S
SAN ANGELO     SUNNY     77  41  27 S16G26    30.07F
SAN ANTONIO    SUNNY     74  39  28 S12       30.16F
WACO           SUNNY     71  49  45 S10       30.09F
WICHITA FALLS  NOT AVBL
$$
...OTHER LOCATIONS IN NEW MEXICO...

CITY           SKY/WX    TMP DP  RH WIND       PRES   REMARKS
ALAMAGORDO     MOSUNNY   68  18  14 CALM      30.21S
ALBUQUERQUE    SUNNY     64  20  18 NE5       30.26F
CANNON AFB     SUNNY     76  30  18 N15       30.11R
CLOVIS         SUNNY     77  34  20 N16       30.11S
HOLLOMAN AFB   MOSUNNY   69  19  14 S1        30.19S
ROSWELL        SUNNY     72  33  24 CALM      30.12F
RUIDOSO        SUNNY     64  18  16 NW21G28   30.31S
SANTA FE       SUNNY     65  20  17 N8        30.28F
TRUTH OR CONSE SUNNY     71  21  15 E7        30.23F
TUCUMCARI      SUNNY     74  28  18 NW9       30.11S
$$

USA.gov is the U.S. government's official web portal to all federal, state and local government web resources and services.